Year,Month,Day,Hour,Minute,Value (Times are PST for insolation in W/m^2)
2019,02,28,00,00,0.00
2019,02,28,00,01,0.00
2019,02,28,00,02,0.00
2019,02,28,00,03,0.00
2019,02,28,00,04,0.00
2019,02,28,00,05,0.00
2019,02,28,00,06,0.00
2019,02,28,00,07,0.00
2019,02,28,00,08,0.00
2019,02,28,00,09,0.00
2019,02,28,00,10,0.00
2019,02,28,00,11,0.00
2019,02,28,00,12,0.00
2019,02,28,00,13,0.00
2019,02,28,00,14,0.00
2019,02,28,00,15,0.00
2019,02,28,00,16,0.00
2019,02,28,00,17,0.00
2019,02,28,00,18,0.00
2019,02,28,00,19,0.00
2019,02,28,00,20,0.00
2019,02,28,00,21,0.00
2019,02,28,00,22,0.00
2019,02,28,00,23,0.00
2019,02,28,00,24,0.00
2019,02,28,00,25,0.00
2019,02,28,00,26,0.00
2019,02,28,00,27,0.00
2019,02,28,00,28,0.00
2019,02,28,00,29,0.00
2019,02,28,00,30,0.00
2019,02,28,00,31,0.00
2019,02,28,00,32,0.00
2019,02,28,00,33,0.00
2019,02,28,00,34,0.00
2019,02,28,00,35,0.00
2019,02,28,00,36,0.00
2019,02,28,00,37,0.00
2019,02,28,00,38,0.00
2019,02,28,00,39,0.00
2019,02,28,00,40,0.00
2019,02,28,00,41,0.00
2019,02,28,00,42,0.00
2019,02,28,00,43,0.00
2019,02,28,00,44,0.00
2019,02,28,00,45,0.00
2019,02,28,00,46,0.00
2019,02,28,00,47,0.00
2019,02,28,00,48,0.00
2019,02,28,00,49,0.00
2019,02,28,00,50,0.00
2019,02,28,00,51,0.00
2019,02,28,00,52,0.00
2019,02,28,00,53,0.00
2019,02,28,00,54,0.00
2019,02,28,00,55,0.00
2019,02,28,00,56,0.00
2019,02,28,00,57,0.00
2019,02,28,00,58,0.00
2019,02,28,00,59,0.00
2019,02,28,01,00,0.00
2019,02,28,01,01,0.00
2019,02,28,01,02,0.00
2019,02,28,01,03,0.00
2019,02,28,01,04,0.00
2019,02,28,01,05,0.00
2019,02,28,01,06,0.00
2019,02,28,01,07,0.00
2019,02,28,01,08,0.00
2019,02,28,01,09,0.00
2019,02,28,01,10,0.00
2019,02,28,01,11,0.00
2019,02,28,01,12,0.00
2019,02,28,01,13,0.00
2019,02,28,01,14,0.00
2019,02,28,01,15,0.00
2019,02,28,01,16,0.00
2019,02,28,01,17,0.00
2019,02,28,01,18,0.00
2019,02,28,01,19,0.00
2019,02,28,01,20,0.00
2019,02,28,01,21,0.00
2019,02,28,01,22,0.00
2019,02,28,01,23,0.00
2019,02,28,01,24,0.00
2019,02,28,01,25,0.00
2019,02,28,01,26,0.00
2019,02,28,01,27,0.00
2019,02,28,01,28,0.00
2019,02,28,01,29,0.00
2019,02,28,01,30,0.00
2019,02,28,01,31,0.00
2019,02,28,01,32,0.00
2019,02,28,01,33,0.00
2019,02,28,01,34,0.00
2019,02,28,01,35,0.00
2019,02,28,01,36,0.00
2019,02,28,01,37,0.00
2019,02,28,01,38,0.00
2019,02,28,01,39,0.00
2019,02,28,01,40,0.00
2019,02,28,01,41,0.00
2019,02,28,01,42,0.00
2019,02,28,01,43,0.00
2019,02,28,01,44,0.00
2019,02,28,01,45,0.00
2019,02,28,01,46,0.00
2019,02,28,01,47,0.00
2019,02,28,01,48,0.00
2019,02,28,01,49,0.00
2019,02,28,01,50,0.00
2019,02,28,01,51,0.00
2019,02,28,01,52,0.00
2019,02,28,01,53,0.00
2019,02,28,01,54,0.00
2019,02,28,01,55,0.00
2019,02,28,01,56,0.00
2019,02,28,01,57,0.00
2019,02,28,01,58,0.00
2019,02,28,01,59,0.00
2019,02,28,02,00,0.00
2019,02,28,02,01,0.00
2019,02,28,02,02,0.00
2019,02,28,02,03,0.00
2019,02,28,02,04,0.00
2019,02,28,02,05,0.00
2019,02,28,02,06,0.00
2019,02,28,02,07,0.00
2019,02,28,02,08,0.00
2019,02,28,02,09,0.00
2019,02,28,02,10,0.00
2019,02,28,02,11,0.00
2019,02,28,02,12,0.00
2019,02,28,02,13,0.00
2019,02,28,02,14,0.00
2019,02,28,02,15,0.00
2019,02,28,02,16,0.00
2019,02,28,02,17,0.00
2019,02,28,02,18,0.00
2019,02,28,02,19,0.00
2019,02,28,02,20,0.00
2019,02,28,02,21,0.00
2019,02,28,02,22,0.00
2019,02,28,02,23,0.00
2019,02,28,02,24,0.00
2019,02,28,02,25,0.00
2019,02,28,02,26,0.00
2019,02,28,02,27,0.00
2019,02,28,02,28,0.00
2019,02,28,02,29,0.00
2019,02,28,02,30,0.00
2019,02,28,02,31,0.00
2019,02,28,02,32,0.00
2019,02,28,02,33,0.00
2019,02,28,02,34,0.00
2019,02,28,02,35,0.00
2019,02,28,02,36,0.00
2019,02,28,02,37,0.00
2019,02,28,02,38,0.00
2019,02,28,02,39,0.00
2019,02,28,02,40,0.00
2019,02,28,02,41,0.00
2019,02,28,02,42,0.00
2019,02,28,02,43,0.00
2019,02,28,02,44,0.00
2019,02,28,02,45,0.00
2019,02,28,02,46,0.00
2019,02,28,02,47,0.00
2019,02,28,02,48,0.00
2019,02,28,02,49,0.00
2019,02,28,02,50,0.00
2019,02,28,02,51,0.00
2019,02,28,02,52,0.00
2019,02,28,02,53,0.00
2019,02,28,02,54,0.00
2019,02,28,02,55,0.00
2019,02,28,02,56,0.00
2019,02,28,02,57,0.00
2019,02,28,02,58,0.00
2019,02,28,02,59,0.00
2019,02,28,03,00,0.00
2019,02,28,03,01,0.00
2019,02,28,03,02,0.00
2019,02,28,03,03,0.00
2019,02,28,03,04,0.00
2019,02,28,03,05,0.00
2019,02,28,03,06,0.00
2019,02,28,03,07,0.00
2019,02,28,03,08,0.00
2019,02,28,03,09,0.00
2019,02,28,03,10,0.00
2019,02,28,03,11,0.00
2019,02,28,03,12,0.00
2019,02,28,03,13,0.00
2019,02,28,03,14,0.00
2019,02,28,03,15,0.00
2019,02,28,03,16,0.00
2019,02,28,03,17,0.00
2019,02,28,03,18,0.00
2019,02,28,03,19,0.00
2019,02,28,03,20,0.00
2019,02,28,03,21,0.00
2019,02,28,03,22,0.00
2019,02,28,03,23,0.00
2019,02,28,03,24,0.00
2019,02,28,03,25,0.00
2019,02,28,03,26,0.00
2019,02,28,03,27,0.00
2019,02,28,03,28,0.00
2019,02,28,03,29,0.00
2019,02,28,03,30,0.00
2019,02,28,03,31,0.00
2019,02,28,03,32,0.00
2019,02,28,03,33,0.00
2019,02,28,03,34,0.00
2019,02,28,03,35,0.00
2019,02,28,03,36,0.00
2019,02,28,03,37,0.00
2019,02,28,03,38,0.00
2019,02,28,03,39,0.00
2019,02,28,03,40,0.00
2019,02,28,03,41,0.00
2019,02,28,03,42,0.00
2019,02,28,03,43,0.00
2019,02,28,03,44,0.00
2019,02,28,03,45,0.00
2019,02,28,03,46,0.00
2019,02,28,03,47,0.00
2019,02,28,03,48,0.00
2019,02,28,03,49,0.00
2019,02,28,03,50,0.00
2019,02,28,03,51,0.00
2019,02,28,03,52,0.00
2019,02,28,03,53,0.00
2019,02,28,03,54,0.00
2019,02,28,03,55,0.00
2019,02,28,03,56,0.00
2019,02,28,03,57,0.00
2019,02,28,03,58,0.00
2019,02,28,03,59,0.00
2019,02,28,04,00,0.00
2019,02,28,04,01,0.00
2019,02,28,04,02,0.00
2019,02,28,04,03,0.00
2019,02,28,04,04,0.00
2019,02,28,04,05,0.00
2019,02,28,04,06,0.00
2019,02,28,04,07,0.00
2019,02,28,04,08,0.00
2019,02,28,04,09,0.00
2019,02,28,04,10,0.00
2019,02,28,04,11,0.00
2019,02,28,04,12,0.00
2019,02,28,04,13,0.00
2019,02,28,04,14,0.00
2019,02,28,04,15,0.00
2019,02,28,04,16,0.00
2019,02,28,04,17,0.00
2019,02,28,04,18,0.00
2019,02,28,04,19,0.00
2019,02,28,04,20,0.00
2019,02,28,04,21,0.00
2019,02,28,04,22,0.00
2019,02,28,04,23,0.00
2019,02,28,04,24,0.00
2019,02,28,04,25,0.00
2019,02,28,04,26,0.00
2019,02,28,04,27,0.00
2019,02,28,04,28,0.00
2019,02,28,04,29,0.00
2019,02,28,04,30,0.00
2019,02,28,04,31,0.00
2019,02,28,04,32,0.00
2019,02,28,04,33,0.00
2019,02,28,04,34,0.00
2019,02,28,04,35,0.00
2019,02,28,04,36,0.00
2019,02,28,04,37,0.00
2019,02,28,04,38,0.00
2019,02,28,04,39,0.00
2019,02,28,04,40,0.00
2019,02,28,04,41,0.00
2019,02,28,04,42,0.00
2019,02,28,04,43,0.00
2019,02,28,04,44,0.00
2019,02,28,04,45,0.00
2019,02,28,04,46,0.00
2019,02,28,04,47,0.00
2019,02,28,04,48,0.00
2019,02,28,04,49,0.00
2019,02,28,04,50,0.00
2019,02,28,04,51,0.00
2019,02,28,04,52,0.00
2019,02,28,04,53,0.00
2019,02,28,04,54,0.00
2019,02,28,04,55,0.00
2019,02,28,04,56,0.00
2019,02,28,04,57,0.00
2019,02,28,04,58,0.00
2019,02,28,04,59,0.00
2019,02,28,05,00,0.00
2019,02,28,05,01,0.00
2019,02,28,05,02,0.00
2019,02,28,05,03,0.00
2019,02,28,05,04,0.00
2019,02,28,05,05,0.00
2019,02,28,05,06,0.00
2019,02,28,05,07,0.00
2019,02,28,05,08,0.00
2019,02,28,05,09,0.00
2019,02,28,05,10,0.00
2019,02,28,05,11,0.00
2019,02,28,05,12,0.00
2019,02,28,05,13,0.00
2019,02,28,05,14,0.00
2019,02,28,05,15,0.00
2019,02,28,05,16,0.00
2019,02,28,05,17,0.00
2019,02,28,05,18,0.00
2019,02,28,05,19,0.00
2019,02,28,05,20,0.00
2019,02,28,05,21,0.00
2019,02,28,05,22,0.00
2019,02,28,05,23,0.00
2019,02,28,05,24,0.00
2019,02,28,05,25,0.00
2019,02,28,05,26,0.00
2019,02,28,05,27,0.00
2019,02,28,05,28,0.00
2019,02,28,05,29,0.00
2019,02,28,05,30,0.00
2019,02,28,05,31,0.00
2019,02,28,05,32,0.00
2019,02,28,05,33,0.00
2019,02,28,05,34,0.00
2019,02,28,05,35,0.00
2019,02,28,05,36,0.00
2019,02,28,05,37,0.00
2019,02,28,05,38,0.00
2019,02,28,05,39,0.00
2019,02,28,05,40,0.00
2019,02,28,05,41,0.00
2019,02,28,05,42,0.00
2019,02,28,05,43,0.00
2019,02,28,05,44,0.00
2019,02,28,05,45,0.00
2019,02,28,05,46,0.00
2019,02,28,05,47,0.00
2019,02,28,05,48,0.00
2019,02,28,05,49,0.00
2019,02,28,05,50,0.00
2019,02,28,05,51,0.00
2019,02,28,05,52,0.00
2019,02,28,05,53,0.00
2019,02,28,05,54,0.00
2019,02,28,05,55,0.00
2019,02,28,05,56,0.00
2019,02,28,05,57,0.00
2019,02,28,05,58,0.00
2019,02,28,05,59,0.00
2019,02,28,06,00,0.00
2019,02,28,06,01,0.00
2019,02,28,06,02,0.00
2019,02,28,06,03,0.00
2019,02,28,06,04,0.00
2019,02,28,06,05,0.00
2019,02,28,06,06,0.00
2019,02,28,06,07,0.00
2019,02,28,06,08,0.00
2019,02,28,06,09,0.00
2019,02,28,06,10,0.00
2019,02,28,06,11,0.00
2019,02,28,06,12,0.00
2019,02,28,06,13,0.00
2019,02,28,06,14,0.00
2019,02,28,06,15,0.00
2019,02,28,06,16,0.00
2019,02,28,06,17,0.00
2019,02,28,06,18,0.00
2019,02,28,06,19,0.00
2019,02,28,06,20,0.00
2019,02,28,06,21,0.00
2019,02,28,06,22,0.00
2019,02,28,06,23,0.00
2019,02,28,06,24,0.00
2019,02,28,06,25,0.00
2019,02,28,06,26,0.00
2019,02,28,06,27,0.00
2019,02,28,06,28,0.00
2019,02,28,06,29,0.00
2019,02,28,06,30,0.00
2019,02,28,06,31,0.00
2019,02,28,06,32,0.00
2019,02,28,06,33,0.00
2019,02,28,06,34,0.00
2019,02,28,06,35,0.00
2019,02,28,06,36,0.00
2019,02,28,06,37,0.00
2019,02,28,06,38,0.00
2019,02,28,06,39,0.00
2019,02,28,06,40,0.00
2019,02,28,06,41,0.00
2019,02,28,06,42,0.00
2019,02,28,06,43,0.00
2019,02,28,06,44,0.00
2019,02,28,06,45,0.00
2019,02,28,06,46,0.00
2019,02,28,06,47,0.00
2019,02,28,06,48,0.00
2019,02,28,06,49,0.00
2019,02,28,06,50,0.00
2019,02,28,06,51,0.00
2019,02,28,06,52,0.00
2019,02,28,06,53,0.00
2019,02,28,06,54,0.00
2019,02,28,06,55,0.00
2019,02,28,06,56,0.00
2019,02,28,06,57,0.00
2019,02,28,06,58,0.00
2019,02,28,06,59,0.00
2019,02,28,07,00,0.00
2019,02,28,07,01,0.00
2019,02,28,07,02,0.00
2019,02,28,07,03,0.00
2019,02,28,07,04,0.00
2019,02,28,07,05,0.00
2019,02,28,07,06,0.00
2019,02,28,07,07,0.00
2019,02,28,07,08,0.00
2019,02,28,07,09,0.00
2019,02,28,07,10,0.00
2019,02,28,07,11,0.00
2019,02,28,07,12,0.00
2019,02,28,07,13,0.00
2019,02,28,07,14,0.00
2019,02,28,07,15,0.00
2019,02,28,07,16,0.00
2019,02,28,07,17,0.00
2019,02,28,07,18,0.00
2019,02,28,07,19,0.00
2019,02,28,07,20,0.00
2019,02,28,07,21,0.00
2019,02,28,07,22,0.00
2019,02,28,07,23,0.00
2019,02,28,07,24,0.00
2019,02,28,07,25,0.00
2019,02,28,07,26,0.00
2019,02,28,07,27,0.00
2019,02,28,07,28,0.00
2019,02,28,07,29,0.00
2019,02,28,07,30,0.00
2019,02,28,07,31,0.00
2019,02,28,07,32,0.00
2019,02,28,07,33,0.00
2019,02,28,07,34,0.00
2019,02,28,07,35,0.00
2019,02,28,07,36,0.00
2019,02,28,07,37,0.00
2019,02,28,07,38,0.00
2019,02,28,07,39,0.00
2019,02,28,07,40,0.00
2019,02,28,07,41,0.00
2019,02,28,07,42,0.00
2019,02,28,07,43,0.00
2019,02,28,07,44,0.00
2019,02,28,07,45,0.00
2019,02,28,07,46,0.00
2019,02,28,07,47,0.00
2019,02,28,07,48,0.00
2019,02,28,07,49,0.00
2019,02,28,07,50,0.00
2019,02,28,07,51,0.00
2019,02,28,07,52,0.00
2019,02,28,07,53,0.00
2019,02,28,07,54,0.00
2019,02,28,07,55,0.00
2019,02,28,07,56,3.50
2019,02,28,07,57,5.00
2019,02,28,07,58,5.20
2019,02,28,07,59,7.00
2019,02,28,08,00,7.00
2019,02,28,08,01,7.90
2019,02,28,08,02,9.00
2019,02,28,08,03,9.00
2019,02,28,08,04,9.00
2019,02,28,08,05,9.20
2019,02,28,08,06,11.00
2019,02,28,08,07,11.00
2019,02,28,08,08,11.00
2019,02,28,08,09,9.80
2019,02,28,08,10,9.00
2019,02,28,08,11,9.00
2019,02,28,08,12,9.00
2019,02,28,08,13,9.00
2019,02,28,08,14,8.30
2019,02,28,08,15,7.00
2019,02,28,08,16,7.00
2019,02,28,08,17,7.00
2019,02,28,08,18,7.00
2019,02,28,08,19,7.00
2019,02,28,08,20,7.50
2019,02,28,08,21,9.00
2019,02,28,08,22,9.00
2019,02,28,08,23,9.00
2019,02,28,08,24,9.00
2019,02,28,08,25,9.00
2019,02,28,08,26,11.00
2019,02,28,08,27,11.00
2019,02,28,08,28,11.00
2019,02,28,08,29,11.40
2019,02,28,08,30,12.00
2019,02,28,08,31,12.00
2019,02,28,08,32,12.00
2019,02,28,08,33,12.00
2019,02,28,08,34,12.00
2019,02,28,08,35,12.70
2019,02,28,08,36,14.00
2019,02,28,08,37,15.20
2019,02,28,08,38,16.00
2019,02,28,08,39,16.00
2019,02,28,08,40,17.90
2019,02,28,08,41,18.00
2019,02,28,08,42,18.30
2019,02,28,08,43,19.00
2019,02,28,08,44,20.20
2019,02,28,08,45,21.00
2019,02,28,08,46,21.00
2019,02,28,08,47,23.20
2019,02,28,08,48,25.00
2019,02,28,08,49,25.00
2019,02,28,08,50,25.50
2019,02,28,08,51,26.00
2019,02,28,08,52,26.00
2019,02,28,08,53,27.60
2019,02,28,08,54,28.20
2019,02,28,08,55,30.50
2019,02,28,08,56,32.00
2019,02,28,08,57,32.00
2019,02,28,08,58,32.60
2019,02,28,08,59,32.30
2019,02,28,09,00,30.30
2019,02,28,09,01,29.80
2019,02,28,09,02,28.00
2019,02,28,09,03,27.30
2019,02,28,09,04,27.00
2019,02,28,09,05,28.00
2019,02,28,09,06,28.00
2019,02,28,09,07,28.00
2019,02,28,09,08,29.90
2019,02,28,09,09,29.50
2019,02,28,09,10,28.00
2019,02,28,09,11,28.00
2019,02,28,09,12,28.00
2019,02,28,09,13,28.00
2019,02,28,09,14,29.70
2019,02,28,09,15,32.00
2019,02,28,09,16,33.50
2019,02,28,09,17,35.00
2019,02,28,09,18,34.10
2019,02,28,09,19,33.00
2019,02,28,09,20,33.00
2019,02,28,09,21,33.00
2019,02,28,09,22,37.00
2019,02,28,09,23,39.00
2019,02,28,09,24,39.00
2019,02,28,09,25,39.50
2019,02,28,09,26,42.40
2019,02,28,09,27,44.00
2019,02,28,09,28,46.50
2019,02,28,09,29,51.10
2019,02,28,09,30,53.70
2019,02,28,09,31,57.30
2019,02,28,09,32,62.30
2019,02,28,09,33,67.90
2019,02,28,09,34,75.10
2019,02,28,09,35,82.00
2019,02,28,09,36,86.00
2019,02,28,09,37,88.70
2019,02,28,09,38,92.30
2019,02,28,09,39,101.50
2019,02,28,09,40,150.50
2019,02,28,09,41,209.50
2019,02,28,09,42,227.60
2019,02,28,09,43,198.20
2019,02,28,09,44,199.80
2019,02,28,09,45,239.00
2019,02,28,09,46,286.90
2019,02,28,09,47,293.30
2019,02,28,09,48,285.20
2019,02,28,09,49,300.20
2019,02,28,09,50,329.70
2019,02,28,09,51,337.40
2019,02,28,09,52,310.10
2019,02,28,09,53,261.60
2019,02,28,09,54,214.00
2019,02,28,09,55,240.20
2019,02,28,09,56,276.40
2019,02,28,09,57,305.20
2019,02,28,09,58,270.60
2019,02,28,09,59,244.00
2019,02,28,10,00,281.60
2019,02,28,10,01,301.90
2019,02,28,10,02,369.90
2019,02,28,10,03,379.10
2019,02,28,10,04,415.60
2019,02,28,10,05,436.60
2019,02,28,10,06,422.50
2019,02,28,10,07,447.20
2019,02,28,10,08,482.00
2019,02,28,10,09,522.20
2019,02,28,10,10,588.10
2019,02,28,10,11,580.80
2019,02,28,10,12,515.50
2019,02,28,10,13,494.00
2019,02,28,10,14,446.00
2019,02,28,10,15,346.70
2019,02,28,10,16,300.40
2019,02,28,10,17,294.20
2019,02,28,10,18,294.00
2019,02,28,10,19,368.60
2019,02,28,10,20,682.00
2019,02,28,10,21,682.00
2019,02,28,10,22,682.00
2019,02,28,10,23,682.00
2019,02,28,10,24,660.80
2019,02,28,10,25,678.90
2019,02,28,10,26,652.40
2019,02,28,10,27,647.00
2019,02,28,10,28,647.00
2019,02,28,10,29,431.80
2019,02,28,10,30,317.80
2019,02,28,10,31,384.40
2019,02,28,10,32,441.50
2019,02,28,10,33,381.60
2019,02,28,10,34,452.00
2019,02,28,10,35,463.50
2019,02,28,10,36,455.80
2019,02,28,10,37,455.00
2019,02,28,10,38,455.00
2019,02,28,10,39,251.30
2019,02,28,10,40,236.30
2019,02,28,10,41,245.40
2019,02,28,10,42,264.30
2019,02,28,10,43,285.00
2019,02,28,10,44,427.50
2019,02,28,10,45,513.80
2019,02,28,10,46,553.00
2019,02,28,10,47,534.80
2019,02,28,10,48,591.60
2019,02,28,10,49,582.40
2019,02,28,10,50,589.70
2019,02,28,10,51,605.60
2019,02,28,10,52,664.30
2019,02,28,10,53,668.60
2019,02,28,10,54,656.20
2019,02,28,10,55,695.90
2019,02,28,10,56,741.40
2019,02,28,10,57,793.30
2019,02,28,10,58,817.00
2019,02,28,10,59,557.20
2019,02,28,11,00,450.70
2019,02,28,11,01,434.80
2019,02,28,11,02,478.20
2019,02,28,11,03,524.00
2019,02,28,11,04,412.60
2019,02,28,11,05,343.00
2019,02,28,11,06,343.00
2019,02,28,11,07,615.70
2019,02,28,11,08,663.20
2019,02,28,11,09,677.60
2019,02,28,11,10,662.60
2019,02,28,11,11,634.50
2019,02,28,11,12,615.00
2019,02,28,11,13,347.60
2019,02,28,11,14,352.40
2019,02,28,11,15,257.30
2019,02,28,11,16,225.00
2019,02,28,11,17,225.00
2019,02,28,11,18,214.00
2019,02,28,11,19,199.40
2019,02,28,11,20,195.30
2019,02,28,11,21,202.80
2019,02,28,11,22,216.90
2019,02,28,11,23,212.00
2019,02,28,11,24,190.00
2019,02,28,11,25,178.10
2019,02,28,11,26,168.40
2019,02,28,11,27,165.00
2019,02,28,11,28,162.30
2019,02,28,11,29,155.80
2019,02,28,11,30,155.30
2019,02,28,11,31,154.60
2019,02,28,11,32,149.90
2019,02,28,11,33,143.00
2019,02,28,11,34,136.20
2019,02,28,11,35,133.60
2019,02,28,11,36,128.40
2019,02,28,11,37,122.40
2019,02,28,11,38,118.70
2019,02,28,11,39,114.80
2019,02,28,11,40,110.40
2019,02,28,11,41,105.80
2019,02,28,11,42,104.40
2019,02,28,11,43,107.50
2019,02,28,11,44,110.30
2019,02,28,11,45,113.50
2019,02,28,11,46,116.30
2019,02,28,11,47,119.40
2019,02,28,11,48,122.50
2019,02,28,11,49,125.10
2019,02,28,11,50,127.20
2019,02,28,11,51,129.40
2019,02,28,11,52,133.00
2019,02,28,11,53,132.80
2019,02,28,11,54,127.20
2019,02,28,11,55,117.40
2019,02,28,11,56,108.50
2019,02,28,11,57,100.80
2019,02,28,11,58,97.00
2019,02,28,11,59,97.50
2019,02,28,12,00,98.00
2019,02,28,12,01,99.40
2019,02,28,12,02,103.40
2019,02,28,12,03,107.60
2019,02,28,12,04,114.60
2019,02,28,12,05,121.60
2019,02,28,12,06,128.20
2019,02,28,12,07,136.00
2019,02,28,12,08,140.50
2019,02,28,12,09,151.10
2019,02,28,12,10,167.30
2019,02,28,12,11,179.00
2019,02,28,12,12,184.70
2019,02,28,12,13,189.80
2019,02,28,12,14,193.80
2019,02,28,12,15,200.00
2019,02,28,12,16,209.30
2019,02,28,12,17,219.70
2019,02,28,12,18,224.80
2019,02,28,12,19,243.90
2019,02,28,12,20,253.70
2019,02,28,12,21,263.20
2019,02,28,12,22,270.50
2019,02,28,12,23,275.40
2019,02,28,12,24,276.00
2019,02,28,12,25,274.70
2019,02,28,12,26,265.90
2019,02,28,12,27,254.50
2019,02,28,12,28,239.60
2019,02,28,12,29,225.00
2019,02,28,12,30,221.00
2019,02,28,12,31,217.60
2019,02,28,12,32,208.50
2019,02,28,12,33,199.00
2019,02,28,12,34,198.30
2019,02,28,12,35,196.00
2019,02,28,12,36,189.50
2019,02,28,12,37,180.40
2019,02,28,12,38,173.70
2019,02,28,12,39,165.40
2019,02,28,12,40,158.30
2019,02,28,12,41,154.10
2019,02,28,12,42,153.00
2019,02,28,12,43,154.50
2019,02,28,12,44,155.80
2019,02,28,12,45,160.20
2019,02,28,12,46,168.20
2019,02,28,12,47,181.40
2019,02,28,12,48,191.30
2019,02,28,12,49,205.10
2019,02,28,12,50,219.30
2019,02,28,12,51,238.20
2019,02,28,12,52,253.80
2019,02,28,12,53,264.00
2019,02,28,12,54,269.80
2019,02,28,12,55,288.50
2019,02,28,12,56,295.00
2019,02,28,12,57,288.10
2019,02,28,12,58,279.10
2019,02,28,12,59,274.80
2019,02,28,13,00,263.40
2019,02,28,13,01,252.20
2019,02,28,13,02,238.80
2019,02,28,13,03,228.60
2019,02,28,13,04,223.60
2019,02,28,13,05,218.80
2019,02,28,13,06,205.70
2019,02,28,13,07,198.60
2019,02,28,13,08,196.40
2019,02,28,13,09,195.90
2019,02,28,13,10,193.00
2019,02,28,13,11,182.10
2019,02,28,13,12,173.30
2019,02,28,13,13,168.10
2019,02,28,13,14,158.20
2019,02,28,13,15,148.80
2019,02,28,13,16,143.10
2019,02,28,13,17,140.30
2019,02,28,13,18,139.00
2019,02,28,13,19,140.60
2019,02,28,13,20,135.20
2019,02,28,13,21,135.50
2019,02,28,13,22,138.30
2019,02,28,13,23,143.30
2019,02,28,13,24,148.90
2019,02,28,13,25,156.10
2019,02,28,13,26,161.40
2019,02,28,13,27,169.30
2019,02,28,13,28,173.00
2019,02,28,13,29,166.80
2019,02,28,13,30,161.10
2019,02,28,13,31,158.80
2019,02,28,13,32,159.50
2019,02,28,13,33,160.00
2019,02,28,13,34,163.20
2019,02,28,13,35,167.80
2019,02,28,13,36,172.70
2019,02,28,13,37,176.00
2019,02,28,13,38,176.00
2019,02,28,13,39,174.60
2019,02,28,13,40,169.80
2019,02,28,13,41,169.20
2019,02,28,13,42,171.60
2019,02,28,13,43,174.60
2019,02,28,13,44,177.40
2019,02,28,13,45,181.30
2019,02,28,13,46,183.00
2019,02,28,13,47,185.50
2019,02,28,13,48,192.70
2019,02,28,13,49,205.00
2019,02,28,13,50,208.30
2019,02,28,13,51,205.60
2019,02,28,13,52,202.80
2019,02,28,13,53,195.80
2019,02,28,13,54,188.80
2019,02,28,13,55,185.10
2019,02,28,13,56,183.60
2019,02,28,13,57,178.00
2019,02,28,13,58,174.10
2019,02,28,13,59,172.00
2019,02,28,14,00,171.30
2019,02,28,14,01,166.00
2019,02,28,14,02,162.00
2019,02,28,14,03,159.60
2019,02,28,14,04,157.00
2019,02,28,14,05,154.00
2019,02,28,14,06,151.80
2019,02,28,14,07,152.50
2019,02,28,14,08,157.20
2019,02,28,14,09,162.70
2019,02,28,14,10,170.00
2019,02,28,14,11,176.20
2019,02,28,14,12,181.00
2019,02,28,14,13,186.20
2019,02,28,14,14,191.40
2019,02,28,14,15,187.20
2019,02,28,14,16,185.30
2019,02,28,14,17,189.20
2019,02,28,14,18,195.10
2019,02,28,14,19,200.40
2019,02,28,14,20,204.30
2019,02,28,14,21,204.60
2019,02,28,14,22,202.30
2019,02,28,14,23,194.10
2019,02,28,14,24,183.60
2019,02,28,14,25,175.60
2019,02,28,14,26,169.20
2019,02,28,14,27,165.80
2019,02,28,14,28,165.00
2019,02,28,14,29,165.00
2019,02,28,14,30,165.30
2019,02,28,14,31,169.50
2019,02,28,14,32,172.00
2019,02,28,14,33,175.80
2019,02,28,14,34,178.60
2019,02,28,14,35,178.30
2019,02,28,14,36,176.30
2019,02,28,14,37,172.20
2019,02,28,14,38,170.80
2019,02,28,14,39,167.60
2019,02,28,14,40,169.90
2019,02,28,14,41,168.70
2019,02,28,14,42,165.50
2019,02,28,14,43,165.00
2019,02,28,14,44,167.10
2019,02,28,14,45,169.00
2019,02,28,14,46,172.10
2019,02,28,14,47,181.20
2019,02,28,14,48,189.30
2019,02,28,14,49,197.00
2019,02,28,14,50,199.80
2019,02,28,14,51,198.70
2019,02,28,14,52,195.00
2019,02,28,14,53,196.60
2019,02,28,14,54,200.90
2019,02,28,14,55,203.20
2019,02,28,14,56,205.50
2019,02,28,14,57,206.00
2019,02,28,14,58,211.20
2019,02,28,14,59,214.00
2019,02,28,15,00,217.30
2019,02,28,15,01,221.10
2019,02,28,15,02,225.80
2019,02,28,15,03,223.60
2019,02,28,15,04,220.60
2019,02,28,15,05,217.90
2019,02,28,15,06,216.00
2019,02,28,15,07,214.30
2019,02,28,15,08,209.10
2019,02,28,15,09,207.00
2019,02,28,15,10,203.50
2019,02,28,15,11,202.00
2019,02,28,15,12,200.60
2019,02,28,15,13,207.00
2019,02,28,15,14,208.60
2019,02,28,15,15,195.70
2019,02,28,15,16,179.80
2019,02,28,15,17,173.10
2019,02,28,15,18,171.20
2019,02,28,15,19,171.00
2019,02,28,15,20,170.10
2019,02,28,15,21,167.00
2019,02,28,15,22,171.20
2019,02,28,15,23,176.00
2019,02,28,15,24,172.50
2019,02,28,15,25,164.20
2019,02,28,15,26,159.20
2019,02,28,15,27,147.50
2019,02,28,15,28,138.90
2019,02,28,15,29,132.70
2019,02,28,15,30,128.80
2019,02,28,15,31,128.00
2019,02,28,15,32,127.20
2019,02,28,15,33,127.00
2019,02,28,15,34,127.00
2019,02,28,15,35,126.30
2019,02,28,15,36,126.40
2019,02,28,15,37,126.20
2019,02,28,15,38,127.20
2019,02,28,15,39,127.20
2019,02,28,15,40,126.50
2019,02,28,15,41,119.80
2019,02,28,15,42,115.00
2019,02,28,15,43,111.20
2019,02,28,15,44,107.80
2019,02,28,15,45,104.80
2019,02,28,15,46,100.60
2019,02,28,15,47,99.30
2019,02,28,15,48,90.30
2019,02,28,15,49,86.60
2019,02,28,15,50,82.70
2019,02,28,15,51,79.80
2019,02,28,15,52,77.60
2019,02,28,15,53,76.20
2019,02,28,15,54,75.80
2019,02,28,15,55,74.00
2019,02,28,15,56,73.40
2019,02,28,15,57,72.00
2019,02,28,15,58,70.80
2019,02,28,15,59,70.00
2019,02,28,16,00,69.20
2019,02,28,16,01,69.00
2019,02,28,16,02,69.00
2019,02,28,16,03,69.00
2019,02,28,16,04,68.10
2019,02,28,16,05,67.00
2019,02,28,16,06,67.00
2019,02,28,16,07,67.00
2019,02,28,16,08,67.00
2019,02,28,16,09,67.00
2019,02,28,16,10,67.70
2019,02,28,16,11,69.40
2019,02,28,16,12,70.00
2019,02,28,16,13,71.40
2019,02,28,16,14,73.70
2019,02,28,16,15,74.20
2019,02,28,16,16,76.20
2019,02,28,16,17,77.70
2019,02,28,16,18,79.90
2019,02,28,16,19,82.20
2019,02,28,16,20,83.00
2019,02,28,16,21,83.00
2019,02,28,16,22,83.80
2019,02,28,16,23,83.00
2019,02,28,16,24,82.30
2019,02,28,16,25,80.10
2019,02,28,16,26,77.80
2019,02,28,16,27,77.00
2019,02,28,16,28,78.60
2019,02,28,16,29,76.00
2019,02,28,16,30,74.00
2019,02,28,16,31,74.00
2019,02,28,16,32,73.10
2019,02,28,16,33,72.00
2019,02,28,16,34,72.00
2019,02,28,16,35,72.00
2019,02,28,16,36,70.10
2019,02,28,16,37,70.00
2019,02,28,16,38,69.70
2019,02,28,16,39,69.00
2019,02,28,16,40,67.80
2019,02,28,16,41,65.50
2019,02,28,16,42,65.00
2019,02,28,16,43,63.10
2019,02,28,16,44,63.00
2019,02,28,16,45,62.70
2019,02,28,16,46,62.00
2019,02,28,16,47,62.00
2019,02,28,16,48,60.60
2019,02,28,16,49,60.00
2019,02,28,16,50,58.10
2019,02,28,16,51,57.50
2019,02,28,16,52,56.00
2019,02,28,16,53,55.00
2019,02,28,16,54,54.00
2019,02,28,16,55,54.00
2019,02,28,16,56,53.20
2019,02,28,16,57,53.00
2019,02,28,16,58,53.00
2019,02,28,16,59,52.30
2019,02,28,17,00,51.00
2019,02,28,17,01,51.00
2019,02,28,17,02,49.60
2019,02,28,17,03,49.00
2019,02,28,17,04,48.80
2019,02,28,17,05,47.00
2019,02,28,17,06,46.70
2019,02,28,17,07,46.00
2019,02,28,17,08,44.80
2019,02,28,17,09,44.00
2019,02,28,17,10,44.00
2019,02,28,17,11,42.10
2019,02,28,17,12,42.00
2019,02,28,17,13,41.30
2019,02,28,17,14,40.00
2019,02,28,17,15,39.40
2019,02,28,17,16,39.00
2019,02,28,17,17,37.30
2019,02,28,17,18,36.80
2019,02,28,17,19,35.00
2019,02,28,17,20,34.30
2019,02,28,17,21,33.00
2019,02,28,17,22,32.40
2019,02,28,17,23,32.00
2019,02,28,17,24,30.30
2019,02,28,17,25,30.00